�N����,�����b,�ŏ������i�x�j,���ϕ����i�x�j,�ő啗���i�x�j,�ŏ�����(m/s),���ϕ���(m/s),�ő啗��(m/s),�C��(���j,���x�i���j,�C��(hPa),�~�J��(mm),�~�J����(�b�j,�~�J���x(mm/h),�~�Ђ傤��(hit/���u),�~�Ђ傤����(�b�j,�~�Ђ傤���x(hit/���uh),�q�[�^���x(���j,�q�[�^�[�d���iV),�d���d���iV),�Q�Ɠd���iV)
2009/12/01,00:00:01,135,309,131,0.2,7.4,21.7,19.5,50.1,1013.1,0.00,0,0.0,0.0,0,0.0,18.7,0.0,11.9,3.473
2009/12/01,00:10:01,145,317,131,0.2,7.5,23.7,19.5,53.9,1013.0,0.00,0,0.0,0.0,0,0.0,18.7,0.0,11.9,3.472
2009/12/01,00:20:01,141,322,135,0.3,8.1,23.5,19.3,53.7,1012.9,0.00,0,0.0,0.0,0,0.0,18.6,0.0,12.0,3.473
2009/12/01,00:30:01,154,329,149,0.0,7.8,24.1,19.3,57.7,1012.7,0.00,0,0.0,0.0,0,0.0,18.6,0.0,11.8,3.474
2009/12/01,00:40:01,166,338,160,0.2,8.6,24.6,19.2,58.1,1012.8,0.00,0,0.0,0.0,0,0.0,18.6,0.0,11.9,3.472
2009/12/01,00:50:01,156,332,130,0.1,9.3,24.3,19.2,58.5,1012.5,0.00,0,0.0,0.0,0,0.0,18.6,0.0,11.9,3.474
2009/12/01,01:00:01,158,335,156,0.1,9.1,24.6,19.2,52.8,1012.6,0.00,0,0.0,0.0,0,0.0,18.4,0.0,11.9,3.473
2009/12/01,01:10:01,181,341,161,0.1,9.5,24.2,19.1,54.8,1012.7,0.00,0,0.0,0.0,0,0.0,18.0,0.0,11.9,3.469
2009/12/01,01:20:01,153,328,145,0.2,8.3,24.8,19.2,55.7,1012.4,0.00,0,0.0,0.0,0,0.0,18.2,0.0,11.9,3.472
2009/12/01,01:30:01,134,308,130,0.2,7.4,23.8,19.1,54.6,1012.6,0.00,0,0.0,0.0,0,0.0,18.0,0.0,12.0,3.473
2009/12/01,01:40:01,124,304,121,0.1,7.1,21.0,19.2,52.4,1012.7,0.00,0,0.0,0.0,0,0.0,18.2,0.0,11.9,3.473
2009/12/01,01:50:01,136,309,126,0.1,7.2,23.6,19.3,51.8,1012.4,0.00,0,0.0,0.0,0,0.0,18.4,0.0,11.8,3.473
2009/12/01,02:00:01,129,312,129,0.1,7.0,22.2,19.3,53.1,1012.5,0.00,0,0.0,0.0,0,0.0,18.4,0.0,12.0,3.473
2009/12/01,02:10:01,109,291,106,0.2,6.2,21.4,19.2,55.2,1012.1,0.00,0,0.0,0.0,0,0.0,18.4,0.0,11.9,3.473
2009/12/01,02:20:01,125,302,124,0.0,6.6,21.3,19.2,58.1,1012.2,0.00,0,0.0,0.0,0,0.0,18.4,0.0,11.9,3.473
2009/12/01,02:30:01,115,292,103,0.2,6.5,21.6,19.2,54.9,1011.9,0.00,0,0.0,0.0,0,0.0,18.2,0.0,11.8,3.473
2009/12/01,02:40:01,132,314,131,0.2,7.1,23.0,19.1,55.5,1011.7,0.00,0,0.0,0.0,0,0.0,18.0,0.0,11.9,3.473
2009/12/01,02:50:01,130,306,120,0.1,7.0,23.6,19.1,56.5,1011.9,0.00,0,0.0,0.0,0,0.0,18.2,0.0,11.9,3.472
2009/12/01,03:00:01,129,302,124,0.1,7.3,22.6,19.1,57.8,1011.9,0.00,0,0.0,0.0,0,0.0,18.2,0.0,11.9,3.473
2009/12/01,03:10:01,115,288,104,0.1,5.8,20.7,19.1,55.5,1011.8,0.00,0,0.0,0.0,0,0.0,18.2,0.0,12.0,3.473
2009/12/01,03:20:01,86,271,84,0.3,5.3,20.8,19.3,57.0,1011.8,0.00,0,0.0,0.0,0,0.0,18.6,0.0,12.0,3.474
2009/12/01,03:30:01,93,267,89,0.2,5.3,20.2,19.2,58.0,1011.8,0.00,0,0.0,0.0,0,0.0,18.6,0.0,11.9,3.473
2009/12/01,03:40:01,102,287,100,0.1,5.4,21.1,19.1,55.8,1011.5,0.00,0,0.0,0.0,0,0.0,18.6,0.0,12.0,3.473
2009/12/01,03:50:01,117,293,116,0.1,5.7,21.4,19.2,57.4,1011.6,0.00,0,0.0,0.0,0,0.0,18.2,0.0,11.9,3.473
2009/12/01,04:00:01,120,297,118,0.2,6.4,21.4,19.2,57.9,1011.6,0.00,0,0.0,0.0,0,0.0,18.4,0.0,11.9,3.473
2009/12/01,04:10:01,129,309,125,0.3,7.3,22.7,19.2,55.0,1011.6,0.00,0,0.0,0.0,0,0.0,18.4,0.0,11.9,3.472
2009/12/01,04:20:01,133,308,128,0.1,6.6,23.3,19.2,56.9,1011.5,0.00,0,0.0,0.0,0,0.0,18.6,0.0,11.9,3.473
2009/12/01,04:30:01,123,302,119,0.2,6.7,22.7,19.2,58.9,1011.6,0.00,0,0.0,0.0,0,0.0,18.4,0.0,11.9,3.473
2009/12/01,04:40:01,111,289,104,0.1,5.7,21.2,19.3,58.4,1011.5,0.00,0,0.0,0.0,0,0.0,18.6,0.0,12.0,3.472
2009/12/01,04:50:01,134,311,123,0.2,7.4,22.9,19.3,55.6,1011.5,0.00,0,0.0,0.0,0,0.0,18.6,0.0,11.9,3.472
2009/12/01,05:00:01,129,310,120,0.1,7.0,23.5,19.4,59.5,1011.5,0.00,0,0.0,0.0,0,0.0,18.7,0.0,12.0,3.472
2009/12/01,05:10:01,128,304,126,0.2,7.1,22.8,19.4,59.2,1011.5,0.00,0,0.0,0.0,0,0.0,18.7,0.0,12.0,3.473
2009/12/01,05:20:01,155,335,152,0.0,8.1,23.5,19.3,57.2,1011.5,0.00,0,0.0,0.0,0,0.0,18.7,0.0,11.9,3.473
2009/12/01,05:30:01,130,303,128,0.2,6.8,22.5,19.3,55.0,1011.6,0.00,0,0.0,0.0,0,0.0,18.6,0.0,11.9,3.473
2009/12/01,05:40:01,109,293,104,0.1,6.3,21.8,19.5,55.0,1011.6,0.00,0,0.0,0.0,0,0.0,18.9,0.0,11.9,3.473
2009/12/01,05:50:01,148,322,141,0.1,6.7,22.7,19.3,54.7,1011.5,0.00,0,0.0,0.0,0,0.0,18.6,0.0,11.9,3.473
2009/12/01,06:00:01,139,318,133,0.2,7.2,22.2,19.4,53.5,1011.7,0.00,0,0.0,0.0,0,0.0,18.6,0.0,11.9,3.474
2009/12/01,06:10:01,155,334,153,0.0,8.4,23.1,19.4,51.8,1011.8,0.00,0,0.0,0.0,0,0.0,18.7,0.0,11.9,3.473
2009/12/01,06:20:01,128,303,124,0.2,6.1,20.7,19.4,51.9,1012.0,0.00,0,0.0,0.0,0,0.0,18.6,0.0,11.9,3.473
2009/12/01,06:30:01,121,299,120,0.1,5.6,19.5,19.5,49.0,1012.0,0.00,0,0.0,0.0,0,0.0,18.7,0.0,11.9,3.473
2009/12/01,06:40:01,116,295,114,0.2,6.2,22.0,19.6,51.5,1012.2,0.00,0,0.0,0.0,0,0.0,18.7,0.0,12.0,3.473
2009/12/01,06:50:01,127,302,124,0.2,5.8,21.2,19.7,56.4,1012.1,0.00,0,0.0,0.0,0,0.0,18.9,0.0,11.9,3.473
2009/12/01,07:00:01,146,326,141,0.1,6.4,21.4,19.5,54.7,1012.2,0.00,0,0.0,0.0,0,0.0,18.9,0.0,11.9,3.473
2009/12/01,07:10:01,157,336,154,0.1,7.3,22.4,19.6,57.8,1012.2,0.00,0,0.0,0.0,0,0.0,18.7,0.0,11.9,3.473
2009/12/01,07:20:01,178,359,172,0.1,6.8,23.0,19.3,58.9,1012.4,0.00,0,0.0,0.0,0,0.0,18.6,0.0,12.0,3.473
2009/12/01,07:30:01,183,0,180,0.2,6.7,22.1,19.3,54.6,1012.6,0.00,0,0.0,0.0,0,0.0,18.7,0.0,12.0,3.474
2009/12/01,07:40:01,159,332,158,0.1,6.0,19.9,19.4,55.0,1012.7,0.00,0,0.0,0.0,0,0.0,18.6,0.0,11.9,3.473
2009/12/01,07:50:01,121,301,116,0.1,5.9,20.6,19.6,51.7,1012.9,0.00,0,0.0,0.0,0,0.0,18.9,0.0,11.9,3.473
2009/12/01,08:00:01,103,278,100,0.3,5.4,22.3,19.6,49.6,1013.0,0.00,0,0.0,0.0,0,0.0,18.9,0.0,12.0,3.473
2009/12/01,08:10:01,115,296,111,0.1,5.9,20.7,19.7,49.2,1013.2,0.00,0,0.0,0.0,0,0.0,18.9,0.0,12.0,3.470
2009/12/01,08:20:01,134,310,125,0.2,5.7,19.7,19.7,49.7,1013.3,0.00,0,0.0,0.0,0,0.0,19.1,0.0,11.9,3.473
2009/12/01,08:30:01,116,295,106,0.1,6.5,21.8,19.7,50.0,1013.3,0.00,0,0.0,0.0,0,0.0,18.9,0.0,11.6,3.472
2009/12/01,08:40:01,101,276,93,0.1,4.9,20.1,19.7,46.1,1013.3,0.00,0,0.0,0.0,0,0.0,19.1,0.0,11.7,3.472
2009/12/01,08:50:01,114,290,107,0.2,5.2,21.3,19.8,51.5,1013.5,0.00,0,0.0,0.0,0,0.0,19.1,0.0,11.7,3.472
2009/12/01,09:00:01,103,281,99,0.1,4.9,19.5,19.8,47.7,1013.6,0.00,0,0.0,0.0,0,0.0,19.1,0.0,11.7,3.474
2009/12/01,09:10:01,114,295,113,0.1,5.9,20.6,19.9,50.9,1013.7,0.00,0,0.0,0.0,0,0.0,19.6,0.0,11.7,3.473
2009/12/01,09:20:01,152,325,137,0.2,6.4,21.8,19.7,52.1,1013.7,0.00,0,0.0,0.0,0,0.0,19.2,0.0,11.7,3.474
2009/12/01,09:30:01,158,340,156,0.0,6.8,23.4,19.8,51.1,1013.8,0.00,0,0.0,0.0,0,0.0,18.7,0.0,11.7,3.473
2009/12/01,09:40:01,157,326,149,0.0,6.9,22.1,19.9,47.8,1014.0,0.00,0,0.0,0.0,0,0.0,19.6,0.0,11.7,3.473
2009/12/01,09:50:01,114,284,111,0.2,5.4,21.5,20.1,46.9,1013.9,0.00,0,0.0,0.0,0,0.0,19.7,0.0,11.7,3.473
2009/12/01,10:00:01,119,305,118,0.1,5.6,20.3,20.3,48.0,1013.8,0.00,0,0.0,0.0,0,0.0,20.2,0.0,11.7,3.472
2009/12/01,10:10:01,136,315,132,0.1,5.9,23.1,20.2,50.9,1014.0,0.00,0,0.0,0.0,0,0.0,20.6,0.0,11.7,3.472
2009/12/01,10:20:01,155,330,132,0.2,7.9,24.5,19.8,61.0,1014.0,0.00,0,0.0,0.0,0,0.0,20.1,0.0,11.6,3.472
2009/12/01,10:30:01,138,312,131,0.2,7.7,24.6,19.7,59.3,1013.9,0.00,0,0.0,0.0,0,0.0,20.1,0.0,11.8,3.472
2009/12/01,10:40:01,164,322,136,0.2,7.4,23.0,19.8,61.5,1013.8,0.00,0,0.0,0.0,0,0.0,19.9,0.0,11.7,3.473
2009/12/01,10:50:01,145,316,133,0.1,7.5,23.6,19.7,60.4,1013.9,0.00,0,0.0,0.0,0,0.0,19.7,0.0,11.8,3.472
2009/12/01,11:00:01,144,323,134,0.2,7.2,24.5,19.6,59.7,1013.8,0.00,0,0.0,0.0,0,0.0,20.1,0.0,11.7,3.473
2009/12/01,11:10:01,141,324,138,0.1,8.1,24.2,19.2,63.4,1013.8,0.00,0,0.0,0.0,0,0.0,19.1,0.0,11.7,3.472
2009/12/01,11:20:01,159,336,155,0.2,8.9,25.2,18.7,65.7,1013.9,0.00,0,0.0,0.0,0,0.0,18.4,0.0,11.8,3.472
2009/12/01,11:30:01,153,330,133,0.1,6.7,21.5,18.5,65.6,1013.7,0.00,0,0.0,0.0,0,0.0,17.9,0.0,11.8,3.474
2009/12/01,11:40:01,120,291,113,0.2,6.1,22.4,18.9,64.6,1013.6,0.00,0,0.0,0.0,0,0.0,18.2,0.0,12.0,3.472
2009/12/01,11:50:01,155,315,131,0.2,7.0,21.5,18.9,64.5,1013.5,0.00,0,0.0,0.0,0,0.0,18.2,0.0,11.8,3.474
2009/12/01,12:00:01,141,318,128,0.1,8.2,22.2,19.2,60.5,1013.2,0.00,0,0.0,0.0,0,0.0,18.4,0.0,11.8,3.472
2009/12/01,12:10:01,136,315,135,0.2,6.6,24.1,19.3,59.7,1013.2,0.00,0,0.0,0.0,0,0.0,18.7,0.0,11.9,3.473
2009/12/01,12:20:01,153,332,141,0.1,7.2,23.4,19.1,59.0,1012.9,0.00,0,0.0,0.0,0,0.0,18.7,0.0,12.0,3.473
2009/12/01,12:30:01,139,313,132,0.2,7.6,25.6,19.2,58.8,1012.8,0.00,0,0.0,0.0,0,0.0,18.6,0.0,11.9,3.472
2009/12/01,12:40:01,145,323,137,0.2,7.3,24.8,19.3,59.8,1012.8,0.00,0,0.0,0.0,0,0.0,18.7,0.0,11.9,3.473
2009/12/01,12:50:01,149,326,145,0.1,7.2,23.6,19.3,58.3,1012.5,0.00,0,0.0,0.0,0,0.0,18.7,0.0,12.0,3.473
2009/12/01,13:00:01,149,328,139,0.1,7.4,24.1,19.3,56.8,1012.5,0.00,0,0.0,0.0,0,0.0,19.1,0.0,12.0,3.472
2009/12/01,13:10:01,153,325,137,0.1,7.1,24.0,19.3,61.1,1012.4,0.00,0,0.0,0.0,0,0.0,18.7,0.0,12.0,3.473
2009/12/01,13:20:01,137,311,128,0.0,7.2,23.4,19.4,59.4,1012.4,0.00,0,0.0,0.0,0,0.0,18.9,0.0,12.0,3.474
2009/12/01,13:30:01,152,329,145,0.1,7.2,23.8,19.3,56.7,1012.2,0.00,0,0.0,0.0,0,0.0,18.6,0.0,11.8,3.473
2009/12/01,13:40:01,118,296,103,0.2,6.5,24.4,19.4,59.0,1012.3,0.00,0,0.0,0.0,0,0.0,18.9,0.0,12.0,3.473
2009/12/01,13:50:01,119,293,116,0.1,6.2,22.1,19.4,57.4,1012.3,0.00,0,0.0,0.0,0,0.0,18.9,0.0,11.7,3.473
2009/12/01,14:00:01,120,304,118,0.1,6.3,23.4,19.5,57.5,1012.3,0.00,0,0.0,0.0,0,0.0,18.9,0.0,11.7,3.472
2009/12/01,14:10:01,125,303,122,0.1,6.9,23.5,19.6,55.0,1012.1,0.00,0,0.0,0.0,0,0.0,19.2,0.0,11.7,3.473
2009/12/01,14:20:01,128,305,124,0.1,6.8,23.6,19.8,53.6,1012.2,0.00,0,0.0,0.0,0,0.0,19.6,0.0,11.7,3.473
2009/12/01,14:30:01,119,299,115,0.2,6.2,21.4,19.9,56.0,1012.3,0.00,0,0.0,0.0,0,0.0,19.7,0.0,11.7,3.472
2009/12/01,14:40:01,124,304,123,0.3,6.4,24.3,19.9,54.7,1012.2,0.00,0,0.0,0.0,0,0.0,19.9,0.0,11.7,3.472
2009/12/01,14:50:01,148,316,132,0.1,7.2,23.5,19.9,57.0,1012.3,0.00,0,0.0,0.0,0,0.0,19.7,0.0,11.5,3.470
2009/12/01,15:00:01,126,301,124,0.2,6.8,22.0,19.9,60.0,1012.3,0.00,0,0.0,0.0,0,0.0,19.7,0.0,11.7,3.472
2009/12/01,15:10:01,109,292,109,0.1,6.1,22.2,19.8,57.2,1012.2,0.00,0,0.0,0.0,0,0.0,19.6,0.0,11.8,3.473
2009/12/01,15:20:01,136,310,120,0.1,6.9,24.5,19.7,62.4,1012.0,0.00,0,0.0,0.0,0,0.0,19.4,0.0,11.6,3.473
2009/12/01,15:30:01,157,339,152,0.2,9.1,25.3,19.6,61.3,1012.0,0.00,0,0.0,0.0,0,0.0,19.2,0.0,11.6,3.473
2009/12/01,15:40:01,153,325,144,0.1,8.4,25.4,19.5,61.8,1012.0,0.00,0,0.0,0.0,0,0.0,19.1,0.0,11.7,3.472
2009/12/01,15:50:01,152,323,142,0.2,7.4,24.4,19.6,62.0,1011.8,0.00,0,0.0,0.0,0,0.0,19.2,0.0,11.6,3.473
2009/12/01,16:00:01,155,333,148,0.1,7.8,24.2,19.6,62.4,1011.8,0.00,0,0.0,0.0,0,0.0,19.1,0.0,11.6,3.474
2009/12/01,16:10:01,154,333,152,0.1,8.3,24.8,19.6,60.5,1011.4,0.00,0,0.0,0.0,0,0.0,19.2,0.0,11.7,3.473
2009/12/01,16:20:01,154,337,140,0.2,8.5,25.1,19.5,61.1,1011.7,0.00,0,0.0,0.0,0,0.0,19.2,0.0,11.7,3.473
2009/12/01,16:30:01,159,333,153,0.2,7.6,23.7,19.6,61.9,1011.8,0.00,0,0.0,0.0,0,0.0,19.4,0.0,11.8,3.473
2009/12/01,16:40:01,153,333,145,0.2,6.9,23.6,19.4,57.7,1011.7,0.00,0,0.0,0.0,0,0.0,19.4,0.0,11.8,3.467
2009/12/01,16:50:01,153,333,140,0.2,7.3,24.0,19.4,59.8,1011.5,0.00,0,0.0,0.0,0,0.0,19.1,0.0,11.7,3.473
2009/12/01,17:00:01,158,335,154,0.2,7.5,24.2,19.4,60.0,1011.9,0.00,0,0.0,0.0,0,0.0,18.7,0.0,11.8,3.473
2009/12/01,17:10:01,162,343,161,0.1,6.5,22.7,19.5,60.6,1011.7,0.00,0,0.0,0.0,0,0.0,18.7,0.0,11.8,3.473
2009/12/01,17:20:01,154,328,145,0.0,7.1,22.7,19.5,61.8,1011.8,0.00,0,0.0,0.0,0,0.0,18.7,0.0,11.9,3.473
2009/12/01,17:30:01,155,337,153,0.0,7.6,24.3,19.6,58.5,1011.9,0.00,0,0.0,0.0,0,0.0,18.9,0.0,11.8,3.473
2009/12/01,17:40:01,154,333,148,0.2,7.9,25.9,19.7,58.3,1012.0,0.00,0,0.0,0.0,0,0.0,18.9,0.0,12.0,3.472
2009/12/01,17:50:01,164,340,159,0.1,8.1,25.5,19.6,58.2,1012.0,0.00,0,0.0,0.0,0,0.0,18.9,0.0,11.6,3.473
2009/12/01,18:00:01,170,351,169,0.1,9.1,24.5,19.6,58.2,1012.0,0.00,0,0.0,0.0,0,0.0,19.1,0.0,11.9,3.472
2009/12/01,18:10:01,153,330,152,0.1,6.9,24.5,19.7,59.2,1012.0,0.00,0,0.0,0.0,0,0.0,19.1,0.0,11.7,3.473
2009/12/01,18:20:01,179,355,163,0.1,7.9,23.8,19.7,61.6,1012.1,0.00,0,0.0,0.0,0,0.0,18.9,0.0,11.7,3.470
2009/12/01,18:30:01,183,358,177,0.1,7.0,23.5,19.6,59.3,1012.0,0.00,0,0.0,0.0,0,0.0,18.9,0.0,11.8,3.473
2009/12/01,18:40:01,187,8,183,0.0,7.7,25.1,19.6,59.7,1011.9,0.00,0,0.0,0.0,0,0.0,18.9,0.0,11.9,3.473
2009/12/01,18:50:01,185,2,181,0.1,7.8,24.8,19.6,60.6,1012.0,0.00,0,0.0,0.0,0,0.0,19.1,0.0,11.9,3.472
2009/12/01,19:00:01,182,357,171,0.1,8.6,24.9,19.7,61.7,1012.2,0.00,0,0.0,0.0,0,0.0,18.9,0.0,12.0,3.472
2009/12/01,19:10:01,178,355,176,0.1,7.2,24.5,19.7,56.1,1012.2,0.00,0,0.0,0.0,0,0.0,18.9,0.0,11.7,3.472
2009/12/01,19:20:01,179,4,175,0.1,7.5,23.3,19.7,57.8,1012.0,0.00,0,0.0,0.0,0,0.0,18.9,0.0,11.8,3.473
2009/12/01,19:30:01,185,2,183,0.2,7.1,25.4,19.8,59.5,1012.2,0.00,0,0.0,0.0,0,0.0,18.9,0.0,11.8,3.473
2009/12/01,19:40:01,174,348,167,0.0,8.2,24.4,19.7,58.2,1012.3,0.00,0,0.0,0.0,0,0.0,19.1,0.0,11.6,3.470
2009/12/01,19:50:01,176,354,171,0.1,7.6,23.2,19.7,60.0,1012.4,0.00,0,0.0,0.0,0,0.0,18.9,0.0,11.9,3.472
2009/12/01,20:00:01,173,348,172,0.1,6.9,23.8,19.6,58.1,1012.5,0.00,0,0.0,0.0,0,0.0,18.9,0.0,11.7,3.473
2009/12/01,20:10:01,160,339,156,0.1,6.9,24.1,19.7,58.8,1012.6,0.00,0,0.0,0.0,0,0.0,18.9,0.0,11.8,3.472
2009/12/01,20:20:01,167,346,165,0.0,6.6,23.1,19.7,59.3,1012.6,0.00,0,0.0,0.0,0,0.0,19.1,0.0,11.7,3.473
2009/12/01,20:30:01,170,346,166,0.1,6.8,23.5,19.7,58.8,1012.6,0.00,0,0.0,0.0,0,0.0,18.9,0.0,11.7,3.472
2009/12/01,20:40:01,165,342,160,0.2,7.4,23.8,19.7,60.3,1012.4,0.00,0,0.0,0.0,0,0.0,18.9,0.0,11.7,3.473
2009/12/01,20:50:01,168,347,164,0.1,7.6,24.0,19.7,61.2,1012.5,0.00,0,0.0,0.0,0,0.0,18.9,0.0,11.7,3.473
2009/12/01,21:00:01,172,349,170,0.1,7.0,24.5,19.6,61.6,1012.5,0.00,0,0.0,0.0,0,0.0,18.7,0.0,11.8,3.473
2009/12/01,21:10:01,166,346,166,0.1,7.1,24.2,19.8,61.8,1012.6,0.00,0,0.0,0.0,0,0.0,18.9,0.0,11.7,3.473
2009/12/01,21:20:01,172,354,171,0.1,7.0,23.7,19.8,62.4,1012.7,0.00,0,0.0,0.0,0,0.0,19.2,0.0,11.6,3.473
2009/12/01,21:30:01,166,344,165,0.1,6.4,23.4,19.8,59.0,1012.9,0.00,0,0.0,0.0,0,0.0,19.1,0.0,11.2,3.473
2009/12/01,21:40:01,175,345,162,0.1,6.9,23.3,19.8,60.5,1012.8,0.00,0,0.0,0.0,0,0.0,19.2,0.0,11.7,3.472
2009/12/01,21:50:01,171,355,166,0.1,6.9,23.6,19.9,60.0,1012.8,0.00,0,0.0,0.0,0,0.0,18.9,0.0,11.8,3.473
2009/12/01,22:00:01,173,352,173,0.0,6.5,22.2,19.9,60.3,1012.6,0.00,0,0.0,0.0,0,0.0,19.2,0.0,11.3,3.473
2009/12/01,22:10:01,180,357,177,0.1,6.9,21.4,19.9,58.1,1012.5,0.00,0,0.0,0.0,0,0.0,19.2,0.0,12.2,3.473
2009/12/01,22:20:01,169,341,161,0.1,6.3,22.2,20.0,60.2,1012.5,0.00,0,0.0,0.0,0,0.0,19.2,0.0,11.9,3.473
2009/12/01,22:30:01,169,343,164,0.1,6.3,21.8,19.9,61.4,1012.6,0.00,0,0.0,0.0,0,0.0,19.1,0.0,11.7,3.473
2009/12/01,22:40:01,145,325,141,0.1,6.1,23.6,19.9,63.4,1012.6,0.00,0,0.0,0.0,0,0.0,19.2,0.0,11.6,3.470
2009/12/01,22:50:01,165,341,157,0.1,7.3,24.1,19.7,67.5,1012.4,0.00,0,0.0,0.0,0,0.0,18.9,0.0,11.7,3.473
2009/12/01,23:00:01,183,1,181,0.1,8.4,22.8,19.5,69.2,1012.5,0.00,60,0.0,0.0,0,0.0,18.2,0.0,12.0,3.474
2009/12/01,23:10:01,165,343,160,0.1,8.5,22.1,19.6,62.9,1012.4,0.00,0,0.0,0.0,0,0.0,18.7,0.0,11.9,3.470
2009/12/01,23:20:01,185,5,180,0.1,9.3,21.7,20.1,59.4,1012.4,0.00,0,0.0,0.0,0,0.0,19.2,0.0,11.7,3.473
2009/12/01,23:30:01,193,9,191,0.1,9.2,21.0,20.1,58.8,1012.3,0.00,0,0.0,0.0,0,0.0,19.4,0.0,11.6,3.473
2009/12/01,23:40:01,183,5,179,0.1,9.2,23.2,20.2,59.0,1012.2,0.00,0,0.0,0.0,0,0.0,19.4,0.0,11.2,3.472
2009/12/01,23:50:01,188,5,184,0.1,8.5,20.0,20.2,55.4,1012.2,0.00,0,0.0,0.0,0,0.0,19.6,0.0,11.8,3.473
2009/12/02,00:00:01,185,5,184,0.1,7.7,18.1,20.2,57.8,1012.1,0.00,0,0.0,0.0,0,0.0,19.4,0.0,11.7,3.473
2009/12/02,00:10:01,183,2,182,0.1,7.8,21.9,20.2,58.9,1012.3,0.00,0,0.0,0.0,0,0.0,19.4,0.0,11.8,3.473
2009/12/02,00:20:01,177,353,168,0.1,7.7,20.6,20.1,61.5,1012.3,0.00,0,0.0,0.0,0,0.0,19.4,0.0,11.7,3.472
2009/12/02,00:30:01,166,338,156,0.1,7.1,21.9,20.1,63.9,1012.2,0.00,0,0.0,0.0,0,0.0,19.2,0.0,11.7,3.470
2009/12/02,00:40:01,168,349,161,0.1,7.4,21.7,20.1,64.0,1012.2,0.00,0,0.0,0.0,0,0.0,19.4,0.0,11.7,3.473
2009/12/02,00:50:01,192,1,176,0.1,8.1,24.1,20.0,64.2,1012.2,0.00,0,0.0,0.0,0,0.0,19.2,0.0,11.7,3.473
2009/12/02,01:00:01,177,351,173,0.1,7.5,24.1,20.0,68.1,1011.8,0.00,0,0.0,0.0,0,0.0,18.9,0.0,11.6,3.473
2009/12/02,01:10:01,188,12,183,0.2,8.8,22.4,19.9,65.2,1011.8,0.00,0,0.0,0.0,0,0.0,18.9,0.0,11.8,3.473
2009/12/02,01:20:01,188,7,185,0.2,8.7,23.8,20.1,65.9,1011.9,0.00,0,0.0,0.0,0,0.0,19.2,0.0,11.6,3.473
2009/12/02,01:30:01,199,18,196,0.1,9.0,24.2,19.8,64.8,1011.9,0.00,0,0.0,0.0,0,0.0,19.2,0.0,11.7,3.473
2009/12/02,01:40:01,197,15,193,0.1,9.0,21.5,19.7,66.7,1011.8,0.00,0,0.0,0.0,0,0.0,19.1,0.0,11.8,3.472
2009/12/02,01:50:01,183,353,167,0.1,8.3,23.1,19.7,69.1,1011.8,0.02,70,0.0,0.0,0,0.0,18.4,0.0,11.9,3.474
2009/12/02,02:00:01,194,10,190,0.2,9.7,25.7,19.8,68.1,1011.8,0.00,0,0.0,0.0,0,0.0,18.7,0.0,11.8,3.472
2009/12/02,02:10:01,184,4,181,0.1,9.2,24.8,19.8,67.7,1011.7,0.00,0,0.0,0.0,0,0.0,18.9,0.0,11.7,3.473
2009/12/02,02:20:01,182,0,176,0.2,9.2,25.2,19.9,66.8,1011.5,0.00,0,0.0,0.0,0,0.0,19.1,0.0,11.8,3.474
2009/12/02,02:30:01,182,358,176,0.2,8.7,25.9,20.0,66.4,1011.5,0.00,0,0.0,0.0,0,0.0,19.2,0.0,11.8,3.470
2009/12/02,02:40:01,192,8,188,0.1,9.1,23.1,19.9,65.3,1011.5,0.00,0,0.0,0.0,0,0.0,19.2,0.0,11.8,3.472
2009/12/02,02:50:01,190,8,187,0.2,9.3,25.5,20.0,65.3,1011.3,0.00,0,0.0,0.0,0,0.0,19.1,0.0,11.5,3.474
2009/12/02,03:00:01,185,5,172,0.0,8.8,24.6,20.2,63.8,1011.2,0.00,0,0.0,0.0,0,0.0,19.4,0.0,11.6,3.473
2009/12/02,03:10:01,189,6,186,0.2,9.1,23.8,20.2,64.6,1011.1,0.00,0,0.0,0.0,0,0.0,19.4,0.0,11.8,3.472
2009/12/02,03:20:01,187,5,183,0.1,8.8,22.9,20.3,61.2,1011.1,0.00,0,0.0,0.0,0,0.0,19.4,0.0,11.7,3.473
2009/12/02,03:30:01,183,2,170,0.2,8.2,23.9,20.3,62.4,1011.2,0.00,0,0.0,0.0,0,0.0,19.4,0.0,12.0,3.473
2009/12/02,03:40:01,175,353,166,0.0,7.9,24.8,20.2,61.3,1011.2,0.00,0,0.0,0.0,0,0.0,19.4,0.0,11.7,3.473
2009/12/02,03:50:01,177,357,172,0.1,8.1,24.2,20.0,65.1,1011.2,0.00,0,0.0,0.0,0,0.0,19.4,0.0,11.7,3.473
2009/12/02,04:00:01,170,345,169,0.2,7.7,24.4,20.1,66.3,1011.2,0.00,0,0.0,0.0,0,0.0,19.2,0.0,11.7,3.472
2009/12/02,04:10:01,180,358,171,0.2,8.3,22.7,20.2,63.0,1011.0,0.00,0,0.0,0.0,0,0.0,19.4,0.0,11.8,3.473
2009/12/02,04:20:01,187,359,173,0.2,8.6,24.3,20.1,62.1,1010.8,0.00,0,0.0,0.0,0,0.0,19.4,0.0,11.6,3.473
2009/12/02,04:30:01,182,0,180,0.1,8.4,24.9,20.1,65.7,1010.8,0.00,0,0.0,0.0,0,0.0,19.4,0.0,11.8,3.474
2009/12/02,04:40:01,177,356,174,0.1,9.1,24.1,19.9,64.5,1010.8,0.00,0,0.0,0.0,0,0.0,19.1,0.0,11.7,3.473
2009/12/02,04:50:01,172,354,171,0.1,8.5,21.8,20.0,60.0,1010.8,0.00,0,0.0,0.0,0,0.0,19.2,0.0,11.6,3.473
2009/12/02,05:00:01,189,10,188,0.3,8.8,21.8,20.0,56.9,1010.8,0.00,0,0.0,0.0,0,0.0,19.1,0.0,11.7,3.473
2009/12/02,05:10:01,192,8,189,0.1,8.0,21.5,20.1,55.1,1011.0,0.00,0,0.0,0.0,0,0.0,19.2,0.0,11.7,3.472
2009/12/02,05:20:01,187,7,187,0.1,8.2,21.1,20.1,53.8,1011.1,0.00,0,0.0,0.0,0,0.0,19.4,0.0,11.6,3.473
2009/12/02,05:30:01,180,0,179,0.1,7.3,21.5,20.1,55.0,1011.0,0.00,0,0.0,0.0,0,0.0,19.2,0.0,11.6,3.473
2009/12/02,05:40:01,171,347,167,0.1,6.7,18.9,20.2,55.4,1011.1,0.00,0,0.0,0.0,0,0.0,19.1,0.0,11.7,3.474
2009/12/02,05:50:01,177,0,176,0.1,6.7,20.3,20.2,55.2,1011.2,0.00,0,0.0,0.0,0,0.0,19.2,0.0,11.6,3.473
2009/12/02,06:00:01,188,5,187,0.1,6.5,20.6,20.1,54.0,1011.3,0.00,0,0.0,0.0,0,0.0,19.4,0.0,11.7,3.472
2009/12/02,06:10:01,185,6,182,0.1,6.8,20.8,20.3,53.8,1011.2,0.00,0,0.0,0.0,0,0.0,19.6,0.0,11.8,3.473
2009/12/02,06:20:01,179,355,179,0.1,6.9,19.3,20.2,50.8,1011.1,0.00,0,0.0,0.0,0,0.0,19.6,0.0,11.6,3.472
2009/12/02,06:30:01,134,310,132,0.1,5.3,20.7,20.4,55.0,1011.2,0.00,0,0.0,0.0,0,0.0,19.6,0.0,11.6,3.472
2009/12/02,06:40:01,153,333,145,0.1,6.1,20.9,20.4,55.5,1011.3,0.00,0,0.0,0.0,0,0.0,19.9,0.0,11.8,3.473
2009/12/02,06:50:01,166,342,161,0.1,6.5,20.0,20.5,56.4,1011.5,0.00,0,0.0,0.0,0,0.0,19.7,0.0,11.6,3.470
2009/12/02,07:00:01,167,345,164,0.2,6.5,19.4,20.5,58.0,1011.7,0.00,0,0.0,0.0,0,0.0,19.7,0.0,11.6,3.473
2009/12/02,07:10:01,171,351,169,0.1,6.7,20.8,20.6,57.3,1011.6,0.00,0,0.0,0.0,0,0.0,19.9,0.0,11.7,3.472
2009/12/02,07:20:01,166,346,162,0.2,6.5,20.7,20.5,55.8,1011.7,0.00,0,0.0,0.0,0,0.0,19.9,0.0,11.7,3.472
2009/12/02,07:30:01,165,339,160,0.1,6.5,18.8,20.6,58.6,1011.8,0.00,0,0.0,0.0,0,0.0,19.7,0.0,11.7,3.472
2009/12/02,07:40:01,170,351,168,0.1,6.7,20.2,20.6,58.0,1011.8,0.00,0,0.0,0.0,0,0.0,19.9,0.0,11.8,3.473
2009/12/02,07:50:01,170,351,166,0.1,6.6,21.1,20.7,59.7,1011.7,0.00,0,0.0,0.0,0,0.0,20.1,0.0,11.7,3.473
2009/12/02,08:00:01,171,350,169,0.1,6.6,19.9,20.6,60.2,1011.8,0.00,0,0.0,0.0,0,0.0,20.1,0.0,11.7,3.473
2009/12/02,08:10:01,170,349,169,0.1,6.3,21.5,20.6,61.4,1012.0,0.00,0,0.0,0.0,0,0.0,20.1,0.0,11.7,3.472
2009/12/02,08:20:01,168,346,168,0.2,6.4,19.6,20.6,59.9,1012.0,0.00,0,0.0,0.0,0,0.0,19.7,0.0,11.8,3.472
2009/12/02,08:30:01,155,333,146,0.1,6.1,19.4,20.6,61.9,1012.0,0.00,0,0.0,0.0,0,0.0,19.9,0.0,11.6,3.473
2009/12/02,08:40:01,153,329,153,0.1,5.8,17.9,20.6,61.5,1012.2,0.00,0,0.0,0.0,0,0.0,19.9,0.0,11.8,3.472
2009/12/02,08:50:01,141,317,137,0.0,5.4,19.2,20.6,62.8,1012.2,0.00,0,0.0,0.0,0,0.0,19.9,0.0,11.7,3.473
2009/12/02,09:00:01,141,320,138,0.1,5.6,19.6,20.6,63.6,1012.4,0.00,0,0.0,0.0,0,0.0,20.1,0.0,11.8,3.473
2009/12/02,09:10:01,152,327,145,0.1,6.1,19.6,20.7,64.0,1012.4,0.00,0,0.0,0.0,0,0.0,20.1,0.0,11.8,3.473
2009/12/02,09:20:01,133,313,129,0.1,5.6,19.6,20.6,62.6,1012.4,0.00,0,0.0,0.0,0,0.0,20.1,0.0,11.7,3.472
2009/12/02,09:30:01,133,303,124,0.0,5.2,20.8,20.7,64.5,1012.4,0.00,0,0.0,0.0,0,0.0,20.2,0.0,11.7,3.473
2009/12/02,09:40:01,126,304,122,0.2,5.6,20.3,20.7,64.3,1012.3,0.00,0,0.0,0.0,0,0.0,20.2,0.0,11.6,3.473
2009/12/02,09:50:01,132,309,129,0.0,5.6,20.3,20.8,65.7,1012.2,0.00,0,0.0,0.0,0,0.0,20.2,0.0,11.7,3.473
2009/12/02,10:00:01,131,311,121,0.1,5.5,21.6,20.9,64.1,1012.1,0.00,0,0.0,0.0,0,0.0,20.4,0.0,11.7,3.472
2009/12/02,10:10:01,143,319,137,0.0,5.9,20.6,21.0,63.6,1012.0,0.00,0,0.0,0.0,0,0.0,20.2,0.0,11.8,3.472
2009/12/02,10:20:01,154,334,153,0.1,6.8,21.3,21.1,64.4,1011.9,0.00,0,0.0,0.0,0,0.0,20.9,0.0,11.8,3.472
2009/12/02,10:30:01,163,339,156,0.0,6.8,20.0,21.1,64.2,1012.0,0.00,0,0.0,0.0,0,0.0,21.1,0.0,11.7,3.472
2009/12/02,10:40:01,153,335,152,0.1,6.8,20.5,21.0,64.8,1011.9,0.00,0,0.0,0.0,0,0.0,20.7,0.0,11.6,3.470
2009/12/02,10:50:01,157,336,153,0.0,6.8,20.5,21.0,66.2,1011.7,0.00,0,0.0,0.0,0,0.0,20.7,0.0,11.7,3.473
2009/12/02,11:00:01,168,341,161,0.1,7.1,21.2,21.1,63.6,1011.5,0.00,0,0.0,0.0,0,0.0,20.9,0.0,11.7,3.472
2009/12/02,11:10:01,166,342,161,0.1,7.1,20.2,21.1,64.9,1011.4,0.00,0,0.0,0.0,0,0.0,20.9,0.0,11.8,3.472
2009/12/02,11:20:01,170,349,167,0.2,7.3,20.6,21.3,65.3,1011.1,0.00,0,0.0,0.0,0,0.0,21.1,0.0,11.9,3.472
2009/12/02,11:30:01,167,337,159,0.0,6.7,20.7,21.3,65.3,1011.1,0.00,0,0.0,0.0,0,0.0,20.7,0.0,12.0,3.472
2009/12/02,11:40:01,157,339,153,0.0,6.7,21.6,21.3,63.8,1010.9,0.00,0,0.0,0.0,0,0.0,21.2,0.0,12.0,3.472
2009/12/02,11:50:01,181,347,168,0.1,7.2,20.2,21.4,65.0,1010.6,0.00,0,0.0,0.0,0,0.0,21.4,0.0,12.0,3.472
2009/12/02,12:00:01,156,335,155,0.1,6.3,19.6,21.5,64.8,1010.3,0.00,0,0.0,0.0,0,0.0,21.6,0.0,11.9,3.472
2009/12/02,12:10:01,173,349,166,0.0,7.4,21.1,21.7,62.5,1010.3,0.00,0,0.0,0.0,0,0.0,21.7,0.0,12.0,3.472
2009/12/02,12:20:01,163,343,159,0.1,7.1,20.8,21.7,59.8,1010.2,0.00,0,0.0,0.0,0,0.0,21.9,0.0,11.8,3.472
2009/12/02,12:30:01,171,349,171,0.1,6.8,19.5,21.8,63.6,1010.1,0.00,0,0.0,0.0,0,0.0,22.1,0.0,11.7,3.470
2009/12/02,12:40:01,159,333,155,0.2,6.0,21.7,21.7,63.9,1009.9,0.00,0,0.0,0.0,0,0.0,22.1,0.0,11.7,3.472
2009/12/02,12:50:01,159,339,155,0.0,6.1,21.2,21.8,62.8,1009.7,0.00,0,0.0,0.0,0,0.0,22.6,0.0,11.8,3.472
2009/12/02,13:00:01,155,329,141,0.1,5.7,19.7,21.9,65.0,1009.6,0.00,0,0.0,0.0,0,0.0,22.4,0.0,11.8,3.472
2009/12/02,13:10:01,149,319,141,0.1,5.4,20.6,21.6,65.9,1009.4,0.00,0,0.0,0.0,0,0.0,22.2,0.0,11.8,3.473
2009/12/02,13:20:01,153,331,137,0.1,5.8,20.1,21.8,66.6,1009.4,0.00,0,0.0,0.0,0,0.0,22.6,0.0,11.7,3.472
2009/12/02,13:30:01,145,325,132,0.1,5.7,19.2,21.6,66.3,1009.1,0.00,0,0.0,0.0,0,0.0,22.2,0.0,11.6,3.472
2009/12/02,13:40:01,149,326,141,0.0,5.4,20.1,21.5,66.4,1009.2,0.00,0,0.0,0.0,0,0.0,22.1,0.0,11.8,3.470
2009/12/02,13:50:01,143,313,133,0.2,5.2,23.6,21.5,67.4,1009.0,0.00,0,0.0,0.0,0,0.0,21.9,0.0,11.9,3.472
2009/12/02,14:00:01,153,318,134,0.2,5.7,22.2,21.5,67.0,1008.8,0.00,0,0.0,0.0,0,0.0,22.1,0.0,11.8,3.472
2009/12/02,14:10:01,137,313,133,0.0,5.4,23.8,21.5,67.9,1008.9,0.00,0,0.0,0.0,0,0.0,21.4,0.0,12.0,3.473
2009/12/02,14:20:01,141,317,134,0.1,5.8,24.0,21.4,67.4,1008.9,0.00,0,0.0,0.0,0,0.0,21.6,0.0,11.8,3.472